Wind_Speed
11 12 13 13 13 14 15 16 16 18 19 18 18 17 18 18 17 16 15 15 15 14 14 14 15 16 17 17 18 19 19 19 20 20 21 22 22 23 24 24 25 25 26
13 14 15 16 16 17 18 19 20 21 21 21 21 21 21 22 21 20 17 17 17 17 17 16 17 18 19 19 20 20 21 22 22 23 23 24 25 26 26 27 27 28 28
15 16 17 18 19 20 21 22 24 24 24 24 24 25 24 25 25 24 22 20 20 20 20 20 20 20 21 22 22 23 23 24 25 26 27 28 28 29 29 30 31 31 32
17 18 20 21 22 24 25 26 27 27 27 27 27 27 27 28 27 26 25 25 24 24 24 24 24 24 24 25 26 27 27 28 28 30 31 32 33 33 34 35 35 36 36
20 21 23 24 25 26 27 29 31 31 30 30 30 29 30 30 30 29 29 29 28 27 26 27 27 28 28 29 30 31 31 32 33 35 35 36 37 38 38 39 40 41 41
24 25 26 27 28 30 31 32 33 33 31 31 30 30 31 30 31 31 32 32 31 31 30 30 30 31 32 33 34 34 36 37 38 39 40 41 42 43 43 44 45 45 46
27 28 29 31 32 32 33 34 33 32 31 30 30 30 30 30 29 29 31 32 33 34 34 34 34 35 36 37 38 39 40 42 43 44 45 46 47 48 48 49 50 51 51
30 32 33 33 34 34 34 33 32 32 30 29 29 30 31 30 29 30 32 33 33 34 35 37 38 39 41 42 43 44 44 45 47 49 50 51 51 52 53 54 55 55 56
33 34 34 34 34 33 32 30 30 30 31 31 31 31 31 31 31 31 32 33 34 36 38 39 41 43 45 47 48 48 49 50 51 53 55 56 56 57 58 59 59 59 60
35 34 33 33 33 33 31 29 29 29 31 30 30 30 31 32 33 33 34 35 36 38 40 42 44 46 49 51 53 53 54 55 56 58 59 60 61 62 63 63 63 64 65
35 34 34 33 32 31 30 31 30 31 31 31 31 32 32 34 35 36 37 39 40 42 44 45 48 50 52 54 56 58 59 60 61 63 64 64 65 66 67 67 68 68 68
35 35 34 32 32 31 32 32 33 33 34 33 34 35 35 37 38 40 41 43 45 47 49 51 53 54 56 58 60 62 63 65 66 66 67 68 69 70 71 71 72 72 72
35 35 34 33 33 33 34 35 36 36 35 37 38 38 39 40 41 43 45 47 49 51 53 54 56 58 60 61 62 64 65 66 67 68 70 71 71 72 73 74 74 74 73
35 34 34 35 36 35 36 37 38 39 39 40 41 41 43 43 45 47 49 50 52 54 56 58 60 61 62 63 64 65 66 66 66 67 69 70 71 71 73 73 73 73 73
38 37 37 37 38 39 40 40 41 42 42 42 43 45 46 47 48 50 52 54 56 57 59 61 62 64 64 63 63 64 65 66 66 67 69 70 71 71 70 69 69 69 68
40 39 39 40 41 42 43 43 43 44 45 46 47 48 49 50 51 53 54 55 56 57 60 61 61 61 62 63 63 64 65 65 65 65 65 65 65 65 65 65 64 63 63
42 42 42 43 44 46 46 45 45 47 47 48 48 49 51 51 52 53 54 55 55 55 56 57 59 60 61 60 60 61 61 62 61 60 59 59 59 59 58 58 58 57 55
44 44 44 45 46 47 47 46 47 48 50 51 51 52 52 53 53 53 54 54 55 55 55 57 58 58 58 59 58 58 57 56 54 53 53 52 52 51 50 50 49 48 47
45 45 46 47 48 47 47 48 49 50 51 51 52 53 53 53 54 54 55 55 56 56 57 57 56 56 56 55 53 52 51 50 49 48 47 45 45 45 44 43 42 42 41
46 46 47 47 47 48 48 49 49 51 51 52 53 54 54 55 55 54 54 55 55 55 54 54 52 52 51 49 48 46 45 44 43 41 41 40 40 39 38 38 37 36 36
45 45 45 45 46 47 48 49 50 51 52 53 53 53 53 53 52 52 51 50 50 49 48 47 45 44 42 41 40 38 37 37 37 36 35 35 34 35 34 33 33 33 33
43 43 43 44 45 46 47 48 49 50 51 51 50 49 49 48 47 47 45 45 43 41 39 37 36 35 34 33 32 32 31 30 30 30 30 31 32 31 31 31 31 31 31
39 40 41 42 43 44 45 47 47 47 46 45 44 43 42 41 39 37 35 33 31 29 29 29 28 26 26 25 26 26 26 26 27 27 27 28 29 29 29 29 29 30 30
37 38 39 40 41 42 42 42 41 40 39 37 37 35 33 31 29 27 26 24 22 21 20 20 20 20 20 21 22 23 23 23 24 25 25 25 26 27 28 28 28 28 27
34 35 36 37 38 38 37 36 34 33 32 31 29 26 23 21 20 19 18 17 16 15 15 16 17 18 19 20 21 21 21 22 22 23 23 24 25 26 27 28 27 26 25
31 31 32 32 32 31 30 29 28 27 25 22 20 17 16 15 15 14 13 13 12 13 14 15 16 17 18 19 20 20 20 21 21 21 22 23 24 25 25 26 25 25 24
Wind_Direction
269 276 281 285 289 291 294 297 299 302 303 303 300 301 302 301 301 300 298 294 294 292 289 286 283 281 280 280 279 279 280 282 285 286 286 287 286 285 284 283 283 282 281
272 278 282 287 289 290 292 294 296 298 298 298 298 297 297 297 295 295 292 292 290 290 287 285 283 282 282 281 280 280 280 281 283 285 286 285 285 284 283 282 282 281 280
273 277 280 284 286 288 291 293 294 295 295 293 292 292 293 293 292 290 288 290 289 288 285 284 283 284 284 283 283 283 282 283 284 284 284 285 284 284 282 281 281 281 280
273 277 280 283 285 287 289 290 290 291 292 291 290 289 289 289 290 289 288 288 288 286 285 285 285 284 284 284 284 284 284 283 284 285 285 285 285 284 283 282 281 281 281
276 278 281 283 284 285 286 286 288 289 289 288 286 286 285 286 285 286 284 284 284 283 283 284 284 283 284 284 283 283 283 283 284 285 284 284 284 283 282 282 281 281 281
279 281 283 285 285 285 284 285 287 288 287 287 286 286 283 283 282 281 280 281 283 283 283 283 283 283 284 284 284 283 284 284 284 284 283 283 283 282 282 281 281 281 280
280 283 284 286 286 287 286 287 288 288 288 287 287 288 284 282 280 280 278 278 279 281 282 282 282 282 282 284 284 284 283 283 283 283 283 283 283 282 281 281 280 280 280
281 285 285 287 288 287 289 289 287 288 284 284 286 285 285 282 280 279 277 276 277 278 279 281 282 282 282 284 284 284 283 283 282 282 282 282 282 282 281 280 280 279 279
279 283 285 286 288 290 290 291 289 286 285 282 282 284 283 283 280 280 278 277 278 278 280 281 282 283 283 283 284 284 284 283 283 283 282 282 282 281 281 281 279 279 278
280 285 289 289 292 292 292 295 295 293 290 285 284 285 284 283 281 281 280 280 280 281 281 282 283 283 282 282 283 283 284 283 283 282 282 282 281 280 280 280 279 279 278
283 287 291 291 290 291 296 298 295 295 293 287 285 285 286 286 284 283 282 281 281 282 283 282 282 282 282 282 283 283 283 282 282 282 282 281 281 280 280 280 280 280 279
288 290 292 290 289 293 298 297 294 293 291 289 288 286 286 285 284 283 281 280 281 281 282 281 282 282 282 282 283 283 283 283 282 281 281 280 280 280 280 280 280 280 279
292 294 293 294 295 296 298 297 294 292 291 290 289 286 285 284 283 283 282 282 282 283 282 281 281 281 282 283 283 283 283 282 282 281 282 282 281 281 280 280 280 279 278
296 296 298 298 299 298 297 296 293 291 291 290 288 287 286 285 284 284 283 283 284 283 282 281 281 282 282 283 283 283 283 283 282 282 283 283 283 283 282 281 280 279 278
295 296 298 299 299 297 296 293 292 291 291 289 287 286 286 285 284 284 284 284 283 283 283 282 282 283 283 283 282 283 283 283 284 285 286 285 285 285 285 284 283 282 281
293 296 297 296 296 296 295 291 289 290 291 289 286 285 286 284 283 284 283 283 283 284 283 282 283 282 283 282 283 283 284 285 286 287 288 288 288 288 287 287 287 286 284
293 294 294 293 294 294 293 290 288 288 287 287 286 286 286 285 284 284 283 283 283 284 283 283 283 283 283 283 284 286 287 287 288 290 291 291 291 291 291 290 289 288 287
291 290 289 291 291 291 290 288 286 286 286 287 287 288 288 288 286 285 285 286 286 286 285 285 285 285 285 286 288 290 291 292 293 294 294 295 295 294 294 293 292 291 289
287 288 288 289 289 288 288 287 289 289 289 289 289 289 289 289 288 286 286 287 287 287 287 287 288 288 288 289 290 291 293 295 296 297 297 297 297 296 295 294 294 292 291
287 287 288 289 289 288 290 290 292 292 292 292 292 290 290 291 290 289 289 289 289 289 289 290 291 291 292 293 294 295 296 297 298 299 299 299 299 298 297 297 296 294 293
287 288 289 290 289 291 293 294 295 295 295 295 294 292 292 293 292 292 292 292 292 292 293 293 294 294 295 296 297 298 298 299 300 301 301 302 303 302 302 302 301 299 297
289 290 291 293 295 296 298 298 298 298 298 297 295 294 294 294 294 295 295 297 297 296 297 297 297 298 299 300 300 301 303 303 304 305 306 307 307 308 308 307 305 304 303
291 294 296 298 300 300 300 300 300 300 300 299 299 298 298 298 299 301 303 304 304 304 303 303 304 304 305 307 308 309 310 311 312 313 313 314 314 315 314 313 311 310 308
296 298 299 300 301 302 303 303 304 303 303 303 302 302 303 305 307 308 310 311 312 313 315 316 315 315 317 319 320 320 321 321 321 321 321 322 322 321 321 320 320 318 315
300 301 303 304 305 306 307 307 307 307 307 308 309 310 313 316 319 321 322 323 324 326 328 328 329 332 333 332 332 330 330 331 330 329 329 329 330 329 328 327 327 326 324
303 305 306 308 310 310 310 310 311 312 313 316 320 323 326 330 334 337 338 338 339 340 340 341 343 344 342 340 337 337 336 336 336 336 336 336 336 335 335 334 333 333 333
Height
5889 5890 5889 5889 5889 5889 5889 5888 5888 5887 5886 5885 5884 5883 5882 5881 5880 5879 5879 5878 5877 5877 5876 5875 5874 5874 5873 5873 5872 5872 5871 5871 5870 5869 5869 5868 5867 5867 5866 5865 5865 5864 5864
5887 5887 5887 5887 5886 5886 5886 5885 5884 5883 5882 5881 5880 5879 5878 5877 5876 5876 5875 5874 5874 5873 5872 5871 5870 5870 5869 5868 5867 5867 5866 5865 5865 5864 5863 5862 5861 5861 5860 5859 5858 5858 5857
5885 5884 5884 5884 5883 5883 5882 5881 5880 5879 5878 5877 5876 5875 5874 5873 5872 5870 5869 5870 5869 5869 5868 5867 5866 5865 5864 5863 5862 5861 5861 5860 5859 5858 5857 5856 5855 5854 5853 5852 5851 5850 5850
5881 5881 5881 5881 5880 5879 5878 5877 5876 5875 5874 5873 5871 5870 5869 5868 5867 5865 5864 5864 5864 5864 5863 5862 5861 5860 5859 5858 5857 5856 5854 5853 5852 5851 5850 5849 5848 5846 5845 5844 5843 5842 5841
5877 5877 5877 5876 5875 5874 5873 5872 5870 5869 5868 5866 5865 5864 5864 5863 5862 5860 5859 5859 5858 5857 5856 5856 5855 5854 5853 5852 5850 5849 5847 5846 5844 5843 5841 5840 5839 5838 5836 5835 5834 5833 5832
5873 5872 5872 5871 5870 5869 5867 5866 5864 5863 5862 5860 5858 5857 5857 5856 5855 5854 5853 5852 5851 5851 5850 5849 5848 5847 5845 5844 5843 5841 5839 5838 5836 5833 5832 5830 5829 5827 5826 5824 5823 5821 5820
5868 5867 5867 5866 5864 5862 5861 5859 5857 5856 5855 5853 5852 5851 5850 5849 5848 5847 5846 5845 5845 5843 5842 5841 5840 5839 5837 5836 5834 5832 5830 5828 5826 5824 5822 5820 5818 5816 5814 5812 5811 5809 5808
5862 5861 5860 5859 5857 5856 5854 5853 5851 5850 5848 5847 5845 5844 5843 5843 5841 5840 5839 5838 5837 5836 5834 5833 5831 5830 5828 5826 5824 5822 5820 5818 5815 5813 5810 5808 5806 5804 5802 5800 5798 5796 5794
5854 5853 5852 5852 5851 5849 5847 5845 5844 5842 5841 5840 5838 5837 5836 5835 5833 5833 5831 5830 5829 5828 5826 5824 5822 5821 5818 5816 5814 5812 5809 5806 5803 5800 5797 5795 5792 5790 5788 5785 5783 5781 5780
5848 5846 5845 5844 5844 5843 5841 5839 5838 5836 5834 5832 5831 5830 5829 5827 5826 5826 5824 5823 5821 5819 5817 5815 5813 5810 5808 5805 5802 5800 5797 5793 5790 5787 5783 5780 5777 5775 5772 5769 5767 5765 5763
5841 5840 5838 5837 5837 5836 5834 5833 5832 5830 5828 5826 5824 5823 5821 5820 5819 5817 5816 5815 5812 5810 5807 5805 5802 5799 5796 5793 5790 5787 5783 5779 5775 5771 5768 5764 5761 5758 5755 5752 5750 5747 5744
5834 5833 5832 5830 5829 5828 5827 5826 5824 5823 5821 5819 5816 5815 5813 5812 5810 5808 5806 5805 5802 5800 5796 5793 5790 5786 5782 5779 5776 5772 5768 5764 5759 5755 5751 5746 5743 5740 5736 5733 5730 5728 5725
5826 5825 5825 5823 5822 5821 5819 5818 5816 5814 5812 5810 5808 5806 5804 5802 5800 5798 5796 5793 5790 5787 5784 5780 5776 5772 5768 5764 5761 5757 5752 5747 5742 5737 5732 5728 5724 5720 5717 5713 5710 5707 5704
5819 5817 5816 5815 5813 5812 5810 5809 5807 5805 5803 5801 5799 5796 5794 5792 5789 5786 5784 5781 5777 5774 5770 5765 5761 5757 5753 5749 5745 5740 5735 5729 5724 5719 5714 5710 5705 5700 5696 5692 5689 5686 5683
5811 5810 5808 5806 5804 5803 5801 5799 5797 5795 5793 5790 5788 5785 5783 5780 5777 5774 5770 5767 5764 5760 5755 5750 5746 5741 5737 5732 5728 5723 5718 5712 5707 5702 5697 5692 5686 5681 5676 5672 5668 5664 5661
5803 5801 5799 5797 5795 5793 5791 5789 5787 5784 5782 5780 5777 5774 5770 5767 5764 5760 5756 5752 5748 5744 5740 5734 5729 5724 5720 5715 5711 5706 5701 5695 5689 5684 5679 5673 5667 5662 5657 5653 5649 5645 5641
5793 5791 5789 5788 5785 5783 5781 5778 5776 5773 5770 5767 5764 5762 5758 5754 5750 5745 5741 5737 5732 5729 5725 5719 5713 5708 5703 5699 5693 5689 5684 5679 5673 5668 5662 5657 5651 5646 5641 5636 5632 5628 5624
5784 5782 5780 5778 5776 5773 5770 5768 5765 5762 5759 5756 5752 5748 5744 5740 5736 5731 5726 5722 5717 5713 5708 5703 5697 5692 5687 5683 5678 5673 5668 5663 5658 5653 5648 5643 5637 5632 5627 5622 5618 5614 5610
5774 5772 5769 5767 5765 5762 5759 5757 5753 5750 5746 5742 5738 5734 5730 5726 5721 5716 5711 5706 5701 5696 5691 5687 5682 5677 5672 5668 5664 5659 5655 5650 5645 5640 5635 5630 5625 5620 5615 5611 5606 5602 5598
5764 5762 5759 5757 5754 5751 5748 5744 5741 5737 5733 5728 5724 5719 5715 5710 5705 5700 5695 5690 5685 5680 5676 5671 5667 5662 5658 5654 5651 5647 5643 5637 5633 5628 5624 5619 5614 5610 5605 5601 5597 5592 5588
5754 5751 5749 5746 5743 5740 5736 5732 5728 5724 5719 5714 5709 5705 5700 5695 5689 5684 5679 5674 5670 5665 5661 5657 5653 5650 5646 5642 5639 5635 5632 5628 5623 5619 5615 5610 5606 5601 5596 5591 5587 5583 5579
5744 5741 5739 5735 5732 5728 5724 5720 5716 5711 5706 5701 5696 5690 5685 5680 5675 5670 5665 5660 5656 5653 5649 5646 5643 5640 5636 5633 5630 5626 5623 5619 5616 5612 5607 5602 5598 5593 5588 5583 5579 5575 5570
5735 5732 5729 5725 5721 5718 5713 5709 5704 5699 5693 5688 5683 5678 5672 5668 5663 5658 5654 5650 5646 5643 5640 5638 5634 5632 5629 5626 5623 5620 5616 5613 5609 5605 5601 5596 5591 5586 5581 5576 5572 5567 5562
5726 5723 5720 5716 5712 5708 5703 5698 5693 5688 5683 5677 5672 5667 5663 5658 5654 5650 5647 5643 5640 5637 5635 5632 5630 5627 5624 5621 5618 5615 5611 5608 5603 5599 5595 5590 5585 5580 5575 5570 5565 5560 5555
5717 5714 5711 5707 5703 5698 5694 5689 5684 5679 5674 5669 5664 5660 5656 5653 5649 5645 5642 5639 5637 5634 5632 5629 5626 5623 5620 5617 5614 5611 5607 5604 5600 5595 5591 5586 5582 5576 5571 5565 5560 5555 5550
5709 5706 5703 5699 5695 5691 5686 5681 5677 5672 5668 5663 5660 5656 5653 5649 5646 5643 5640 5638 5635 5633 5630 5627 5624 5621 5618 5615 5612 5608 5604 5601 5597 5593 5588 5583 5578 5573 5568 5562 5556 5550 5545